When you browse on this site, cookies collect data to enhance your experience and personalize the content and advertising you see.
Visit our Privacy Policy to learn more. By continuing to use the site, you agree to this use of cookies and data.
  • In Austria
  • List of Countries
  • For 7 days
  • Water Temperature
  • Satellite Maps
  • Weather Map
  • News
  • Weather Widgets
  • user-avatar
    Login

    Hourly Weather Vila Real

    Today, 26 May, Sunday

    Time Temperature Precipitation Wind Pressure Humidity
    00:00 +15°C° 0 mm 2 mps 725 mmHg 73%
    01:00 +14°C° 0 mm 2 mps 724 mmHg 74%
    02:00 +14°C° 0 mm 2 mps 724 mmHg 76%
    03:00 +14°C° 0 mm 2 mps 725 mmHg 77%
    04:00 +14°C° 0 mm 2 mps 725 mmHg 77%
    05:00 +13°C° 0 mm 1 mps 725 mmHg 78%
    06:00 +16°C° 0 mm 1 mps 725 mmHg 69%
    07:00 +19°C° 0 mm 1 mps 725 mmHg 61%
    08:00 +21°C° 0 mm 1 mps 725 mmHg 52%
    09:00 +23°C° 0 mm 1 mps 725 mmHg 47%
    10:00 +25°C° 0 mm 1 mps 725 mmHg 41%
    11:00 +27°C° 0 mm 1 mps 725 mmHg 36%
    12:00 +28°C° 0 mm 2 mps 724 mmHg 34%
    13:00 +29°C° 0 mm 2 mps 724 mmHg 32%
    14:00 +29°C° 0 mm 2 mps 724 mmHg 30%
    15:00 +29°C° 0 mm 3 mps 724 mmHg 33%
    16:00 +28°C° 0 mm 3 mps 723 mmHg 37%
    17:00 +27°C° 0 mm 4 mps 723 mmHg 40%
    18:00 +25°C° 0 mm 3 mps 723 mmHg 47%
    19:00 +23°C° 0 mm 2 mps 723 mmHg 54%
    20:00 +20°C° 0 mm 1 mps 723 mmHg 62%
    21:00 +20°C° 0 mm 1 mps 723 mmHg 64%
    22:00 +19°C° 0 mm 1 mps 723 mmHg 67%
    23:00 +17°C° 0 mm 2 mps 723 mmHg 70%

    Tomorrow, 27 May, Monday

    Time Temperature Precipitation Wind Pressure Humidity
    00:00 +17°C° 0 mm 2 mps 723 mmHg 70%
    01:00 +16°C° 0 mm 2 mps 722 mmHg 70%
    02:00 +16°C° 0 mm 2 mps 722 mmHg 70%
    03:00 +16°C° 0 mm 1 mps 722 mmHg 71%
    04:00 +16°C° 0 mm 1 mps 722 mmHg 72%
    05:00 +16°C° 0 mm 1 mps 722 mmHg 73%
    06:00 +19°C° 0 mm 1 mps 722 mmHg 65%
    07:00 +22°C° 0 mm 1 mps 722 mmHg 57%
    08:00 +22°C° 0 mm 0 mps 723 mmHg 49%
    09:00 +25°C° 0 mm 1 mps 722 mmHg 45%
    10:00 +27°C° 0 mm 1 mps 722 mmHg 40%
    11:00 +28°C° 0 mm 2 mps 722 mmHg 35%
    12:00 +28°C° 0 mm 2 mps 722 mmHg 35%
    13:00 +28°C° 0 mm 3 mps 721 mmHg 35%
    14:00 +29°C° 0 mm 3 mps 721 mmHg 35%
    15:00 +28°C° 0 mm 4 mps 721 mmHg 39%
    16:00 +27°C° 0 mm 4 mps 721 mmHg 43%
    17:00 +26°C° 0 mm 4 mps 720 mmHg 47%
    18:00 +24°C° 0 mm 3 mps 721 mmHg 54%
    19:00 +20°C° 0 mm 2 mps 721 mmHg 62%
    20:00 +18°C° 0 mm 2 mps 721 mmHg 69%
    21:00 +17°C° 0 mm 2 mps 721 mmHg 71%
    22:00 +16°C° 0 mm 2 mps 721 mmHg 73%
    23:00 +15°C° 0 mm 2 mps 721 mmHg 75%

    Day after tomorrow, 28 May, Tuesday

    Time Temperature Precipitation Wind Pressure Humidity
    00:00 +15°C° 0 mm 2 mps 721 mmHg 76%
    01:00 +15°C° 0 mm 2 mps 721 mmHg 77%
    02:00 +15°C° 0 mm 2 mps 721 mmHg 77%
    03:00 +14°C° 0 mm 2 mps 721 mmHg 78%
    04:00 +14°C° 0 mm 2 mps 721 mmHg 79%
    05:00 +14°C° 0 mm 2 mps 722 mmHg 80%
    06:00 +16°C° 0 mm 2 mps 722 mmHg 73%
    07:00 +18°C° 0 mm 2 mps 722 mmHg 66%
    08:00 +20°C° 0 mm 2 mps 723 mmHg 59%
    09:00 +23°C° 0 mm 2 mps 723 mmHg 51%
    10:00 +24°C° 0 mm 2 mps 723 mmHg 43%
    11:00 +26°C° 0 mm 2 mps 723 mmHg 35%
    12:00 +27°C° 0 mm 2 mps 723 mmHg 32%
    13:00 +28°C° 0 mm 3 mps 723 mmHg 29%
    14:00 +29°C° 0 mm 3 mps 722 mmHg 26%
    15:00 +28°C° 0 mm 3 mps 722 mmHg 29%
    16:00 +27°C° 0 mm 3 mps 722 mmHg 32%
    17:00 +26°C° 0 mm 4 mps 722 mmHg 35%
    18:00 +24°C° 0 mm 3 mps 722 mmHg 41%
    19:00 +20°C° 0 mm 2 mps 723 mmHg 47%
    20:00 +18°C° 0 mm 2 mps 723 mmHg 53%
    21:00 +17°C° 0 mm 2 mps 723 mmHg 55%
    22:00 +16°C° 0 mm 2 mps 724 mmHg 57%
    23:00 +16°C° 0 mm 3 mps 724 mmHg 59%

    29 May, Wednesday

    Time Temperature Precipitation Wind Pressure Humidity
    00:00 +15°C° 0 mm 2 mps 724 mmHg 61%
    01:00 +15°C° 0 mm 2 mps 724 mmHg 63%
    02:00 +14°C° 0 mm 2 mps 724 mmHg 65%
    03:00 +14°C° 0 mm 2 mps 724 mmHg 67%
    04:00 +14°C° 0 mm 2 mps 724 mmHg 69%
    05:00 +13°C° 0 mm 2 mps 725 mmHg 71%
    06:00 +15°C° 0 mm 2 mps 725 mmHg 64%
    07:00 +17°C° 0 mm 2 mps 725 mmHg 57%
    08:00 +19°C° 0 mm 3 mps 726 mmHg 50%
    09:00 +21°C° 0 mm 3 mps 726 mmHg 45%
    10:00 +24°C° 0 mm 3 mps 726 mmHg 39%
    11:00 +26°C° 0 mm 3 mps 726 mmHg 34%
    12:00 +27°C° 0 mm 3 mps 726 mmHg 32%
    13:00 +28°C° 0 mm 2 mps 725 mmHg 30%
    14:00 +29°C° 0 mm 2 mps 725 mmHg 28%
    15:00 +28°C° 0 mm 2 mps 725 mmHg 30%
    16:00 +28°C° 0 mm 2 mps 725 mmHg 32%
    17:00 +28°C° 0 mm 2 mps 725 mmHg 35%
    18:00 +26°C° 0 mm 2 mps 725 mmHg 41%
    19:00 +23°C° 0 mm 2 mps 725 mmHg 47%
    20:00 +20°C° 0 mm 2 mps 726 mmHg 53%
    21:00 +19°C° 0 mm 2 mps 726 mmHg 55%
    22:00 +19°C° 0 mm 2 mps 726 mmHg 57%
    23:00 +18°C° 0 mm 2 mps 726 mmHg 59%

    30 May, Thursday

    Time Temperature Precipitation Wind Pressure Humidity
    00:00 +17°C° 0 mm 2 mps 726 mmHg 62%
    01:00 +17°C° 0 mm 2 mps 726 mmHg 65%
    02:00 +16°C° 0 mm 2 mps 726 mmHg 67%
    03:00 +16°C° 0 mm 2 mps 726 mmHg 69%
    04:00 +15°C° 0 mm 2 mps 726 mmHg 71%
    05:00 +15°C° 0 mm 2 mps 726 mmHg 73%
    06:00 +17°C° 0 mm 2 mps 727 mmHg 65%
    07:00 +19°C° 0 mm 2 mps 727 mmHg 57%
    08:00 +21°C° 0 mm 2 mps 727 mmHg 49%
    09:00 +24°C° 0 mm 2 mps 727 mmHg 44%
    10:00 +26°C° 0 mm 2 mps 727 mmHg 39%
    11:00 +28°C° 0 mm 2 mps 728 mmHg 34%
    12:00 +29°C° 0 mm 2 mps 727 mmHg 31%
    13:00 +30°C° 0 mm 2 mps 727 mmHg 28%
    14:00 +31°C° 0 mm 2 mps 727 mmHg 25%
    15:00 +30°C° 0 mm 2 mps 727 mmHg 26%
    16:00 +30°C° 0 mm 2 mps 726 mmHg 28%
    17:00 +30°C° 0 mm 1 mps 726 mmHg 29%
    18:00 +27°C° 0 mm 1 mps 726 mmHg 33%
    19:00 +25°C° 0 mm 1 mps 726 mmHg 37%
    20:00 +23°C° 0 mm 1 mps 727 mmHg 41%
    21:00 +22°C° 0 mm 1 mps 727 mmHg 43%
    22:00 +20°C° 0 mm 2 mps 727 mmHg 45%
    23:00 +19°C° 0 mm 2 mps 727 mmHg 47%

    31 May, Friday

    Time Temperature Precipitation Wind Pressure Humidity
    00:00 +19°C° 0 mm 2 mps 726 mmHg 49%
    01:00 +18°C° 0 mm 2 mps 726 mmHg 51%
    02:00 +17°C° 0 mm 2 mps 726 mmHg 53%
    03:00 +17°C° 0 mm 2 mps 726 mmHg 56%
    04:00 +17°C° 0 mm 2 mps 726 mmHg 59%
    05:00 +17°C° 0 mm 2 mps 726 mmHg 62%
    06:00 +19°C° 0 mm 2 mps 727 mmHg 54%
    07:00 +21°C° 0 mm 2 mps 727 mmHg 47%
    08:00 +25°C° 0 mm 2 mps 727 mmHg 39%
    09:00 +26°C° 0 mm 2 mps 727 mmHg 35%
    10:00 +28°C° 0 mm 3 mps 727 mmHg 30%
    11:00 +30°C° 0 mm 3 mps 727 mmHg 26%
    12:00 +31°C° 0 mm 3 mps 727 mmHg 24%
    13:00 +33°C° 0 mm 3 mps 727 mmHg 21%
    14:00 +34°C° 0 mm 3 mps 726 mmHg 19%
    15:00 +34°C° 0 mm 2 mps 726 mmHg 20%
    16:00 +32°C° 0 mm 2 mps 726 mmHg 22%
    17:00 +32°C° 0 mm 2 mps 725 mmHg 23%
    18:00 +30°C° 0 mm 2 mps 725 mmHg 26%
    19:00 +27°C° 0 mm 2 mps 725 mmHg 29%
    20:00 +25°C° 0 mm 2 mps 725 mmHg 31%
    21:00 +24°C° 0 mm 2 mps 725 mmHg 33%
    22:00 +23°C° 0 mm 2 mps 725 mmHg 36%
    23:00 +21°C° 0 mm 2 mps 725 mmHg 38%
    Show more